TimeCST,TemperatureF,Dew PointF,Humidity,Sea Level PressureIn,VisibilityMPH,Wind Direction,Wind SpeedMPH,Gust SpeedMPH,PrecipitationIn,Events,Conditions,WindDirDegrees,DateUTC
12:53 AM,33.1,25.0,72,30.32,10.0,South,4.6,-,N/A,,Clear,180,2012-11-14 06:53:00
1:53 AM,30.9,24.1,76,30.32,10.0,SSE,6.9,-,N/A,,Clear,150,2012-11-14 07:53:00
2:53 AM,32.0,25.0,75,30.33,10.0,SSE,3.5,-,N/A,,Clear,150,2012-11-14 08:53:00
3:53 AM,30.9,24.1,76,30.33,10.0,SE,4.6,-,N/A,,Clear,130,2012-11-14 09:53:00
4:53 AM,30.0,23.0,75,30.32,10.0,SE,5.8,-,N/A,,Clear,140,2012-11-14 10:53:00
5:53 AM,30.0,23.0,75,30.34,10.0,Calm,Calm,-,N/A,,Clear,0,2012-11-14 11:53:00
6:53 AM,26.1,21.0,81,30.36,10.0,NW,4.6,-,N/A,,Clear,320,2012-11-14 12:53:00
7:53 AM,28.9,23.0,78,30.37,10.0,Calm,Calm,-,N/A,,Clear,0,2012-11-14 13:53:00
8:53 AM,37.0,28.0,70,30.37,10.0,ESE,3.5,-,N/A,,Clear,110,2012-11-14 14:53:00
9:53 AM,43.0,28.0,56,30.36,10.0,SSE,6.9,-,N/A,,Clear,160,2012-11-14 15:53:00
10:53 AM,46.9,28.9,50,30.36,10.0,South,6.9,-,N/A,,Clear,190,2012-11-14 16:53:00
11:53 AM,51.1,27.0,39,30.33,10.0,SSE,6.9,-,N/A,,Clear,160,2012-11-14 17:53:00
12:53 PM,54.0,28.0,37,30.29,10.0,South,11.5,-,N/A,,Clear,170,2012-11-14 18:53:00
1:53 PM,55.9,28.9,36,30.27,10.0,SSE,12.7,19.6,N/A,,Clear,160,2012-11-14 19:53:00
2:53 PM,57.0,28.9,34,30.24,10.0,South,15.0,20.7,N/A,,Clear,170,2012-11-14 20:53:00
3:53 PM,55.9,28.9,36,30.24,10.0,South,13.8,-,N/A,,Clear,170,2012-11-14 21:53:00
4:53 PM,51.1,30.0,44,30.23,10.0,South,8.1,-,N/A,,Clear,180,2012-11-14 22:53:00
5:53 PM,45.0,30.0,56,30.23,10.0,South,6.9,-,N/A,,Clear,170,2012-11-14 23:53:00
6:53 PM,41.0,28.9,62,30.24,10.0,SSE,8.1,-,N/A,,Clear,160,2012-11-15 00:53:00
7:53 PM,39.0,28.9,67,30.24,10.0,SSE,6.9,-,N/A,,Clear,150,2012-11-15 01:53:00
8:53 PM,39.0,28.9,67,30.24,10.0,South,3.5,-,N/A,,Clear,180,2012-11-15 02:53:00
9:53 PM,35.1,28.9,78,30.24,10.0,South,3.5,-,N/A,,Clear,180,2012-11-15 03:53:00
10:53 PM,35.1,28.0,76,30.24,10.0,SSE,3.5,-,N/A,,Clear,160,2012-11-15 04:53:00
11:53 PM,34.0,28.0,79,30.22,10.0,SE,3.5,-,N/A,,Clear,140,2012-11-15 05:53:00